Location: Newark
(45.8667°N, 9.7333°E)
Time: 05:04:00
(UTC+00:00)

Transit 4A - Pass Details

Date: 28 January 2020
Orbit: 872 x 973 km, 66.8° (Epoch: 19 February)

Event Time Altitude Azimuth Distance (km) Brightness Sun altitude
Rises 08:21:36 0° 287° (WNW) 3,509 10.4 12.5°
Reaches altitude 10° 08:26:02 10° 318° (NW) 2,551 9.6 13.1°
Maximum altitude 08:28:13 12° 340° (NNW) 2,404 9.6 13.3°
Drops below altitude 10° 08:30:22 10° 2° (N) 2,539 9.8 13.6°
Sets 08:34:47 0° 33° (NNE) 3,472 10.8 14.1°
